Location: Kott?ru
(16.6209°N, 80.6208°E)
Time: 14:42:55
(UTC+00:00)

Cosmos 841 Rocket - Pass Details

Date: 18 September 2020
Orbit: 747 x 772 km, 74.0° (Epoch: 30 October)

Event Time Altitude Azimuth Distance (km) Brightness Sun altitude
Exits shadow 22:42:25 10° 178° (S) 2,292 5.9 -25.6°
Reaches altitude 10° 22:42:29 10° 178° (S) 2,268 5.9 -25.5°
Maximum altitude 22:47:29 53° 102° (ESE) 920 4.2 -24.4°
Drops below altitude 10° 22:52:31 10° 25° (NNE) 2,288 6.4 -23.2°
Sets 22:54:56 0° 21° (NNE) 3,219 7.1 -22.6°
